This is the latest recevied weather packets stored in our database for station/object EA5JUX. If no packets are shown the sender has not sent any weather packets the latest 10 day(s).
| Time | Temp. | Humidity | Pressure | Rain* | Wind** | Luminosity | Snow |
|---|---|---|---|---|---|---|---|
| 1787669223 | 28.89° C | 67% | 1011.3 hPa | 0 mm | - | - | - |
| 1787668902 | 29.44° C | 66% | 1011.4 hPa | 0 mm | - | - | - |
| 1787668601 | 28.89° C | 66% | 1011.3 hPa | 0 mm | - | - | - |
| 1787668302 | 28.89° C | 64% | 1011.3 hPa | 0 mm | - | - | - |
| 1787668002 | 28.89° C | 65% | 1011.4 hPa | 0 mm | - | - | - |
| 1787667702 | 28.89° C | 66% | 1011.5 hPa | 0 mm | - | - | - |
| 1787667415 | 28.89° C | 68% | 1011.6 hPa | 0 mm | - | - | - |
| 1787667116 | 28.89° C | 68% | 1011.6 hPa | 0 mm | - | - | - |
| 1787666819 | 29.44° C | 66% | 1011.6 hPa | 0 mm | - | - | - |
| 1787666502 | 30° C | 65% | 1011.8 hPa | 0 mm | - | - | - |
| 1787666202 | 29.44° C | 61% | 1011.6 hPa | 0 mm | - | - | - |
| 1787665915 | 29.44° C | 61% | 1011.9 hPa | 0 mm | - | - | - |
| 1787665603 | 29.44° C | 59% | 1011.9 hPa | 0 mm | - | - | - |
| 1787665302 | 30° C | 59% | 1012.1 hPa | 0 mm | - | - | - |
| 1787665002 | 30° C | 58% | 1012 hPa | 0 mm | - | - | - |
| 1787664701 | 30° C | 57% | 1012.2 hPa | 0 mm | - | - | - |
| 1787664402 | 30.56° C | 55% | 1012.2 hPa | 0 mm | - | - | - |
| 1787664103 | 30° C | 55% | 1012.3 hPa | 0 mm | - | - | - |
| 1787663801 | 30° C | 55% | 1012 hPa | 0 mm | - | - | - |
| 1787663502 | 30° C | 56% | 1012.5 hPa | 0 mm | - | - | - |
| 1787663201 | 30° C | 55% | 1012.4 hPa | 0 mm | - | - | - |
| 1787662901 | 30° C | 54% | 1012.4 hPa | 0 mm | - | - | - |
| 1787662602 | 30.56° C | 54% | 1012.7 hPa | 0 mm | - | - | - |
| 1787662302 | 30° C | 53% | 1012.3 hPa | 0 mm | - | - | - |
| 1787662001 | 30° C | 54% | 1012.5 hPa | 0 mm | - | - | - |
* Rain latest hour (hover to see other rain measurements)
** Current wind speed in m/s (hover to see current wind gust speed)